This is the latest recevied weather packets stored in our database for station/object N6RDS. If no packets are shown the sender has not sent any weather packets the latest 10 day(s).
| Time | Temp. | Humidity | Pressure | Rain* | Wind** | Luminosity | Snow |
|---|---|---|---|---|---|---|---|
| 1777876179 | 9.44° C | 43% | 1022.1 hPa | 0 mm | - | 0 W/m² | - |
| 1777875876 | 9.44° C | 44% | 1022.3 hPa | 0 mm | - | 0 W/m² | - |
| 1777875572 | 9.44° C | 43% | 1022.3 hPa | 0 mm | - | 0 W/m² | - |
| 1777875268 | 9.44° C | 42% | 1022.4 hPa | 0 mm | - | 0 W/m² | - |
| 1777874965 | 9.44° C | 42% | 1022.4 hPa | 0 mm | - | 0 W/m² | - |
| 1777874660 | 9.44° C | 43% | 1022.6 hPa | 0 mm | - | 0 W/m² | - |
| 1777874357 | 9.44° C | 45% | 1022.6 hPa | 0 mm | - | 0 W/m² | - |
| 1777874056 | 8.89° C | 44% | 1023.1 hPa | 0 mm | - | 0 W/m² | - |
| 1777873754 | 8.89° C | 45% | 1022.7 hPa | 0 mm | - | 0 W/m² | - |
| 1777873450 | 9.44° C | 44% | 1023.1 hPa | 0 mm | - | 0 W/m² | - |
| 1777873146 | 9.44° C | 43% | 1023.1 hPa | 0 mm | - | 0 W/m² | - |
| 1777872844 | 10° C | 42% | 1023.2 hPa | 0 mm | - | 0 W/m² | - |
| 1777872542 | 10° C | 42% | 1023.1 hPa | 0 mm | - | 0 W/m² | - |
| 1777872238 | 10.56° C | 41% | 1023.2 hPa | 0 mm | - | 0 W/m² | - |
| 1777871935 | 10.56° C | 41% | 1022.9 hPa | 0 mm | - | 0 W/m² | - |
| 1777871631 | 11.11° C | 39% | 1023.2 hPa | 0 mm | - | 0 W/m² | - |
| 1777871328 | 11.11° C | 39% | 1022.9 hPa | 0 mm | - | 0 W/m² | - |
| 1777871026 | 11.11° C | 40% | 1023.2 hPa | 0 mm | - | 0 W/m² | - |
| 1777870724 | 11.67° C | 39% | 1023.1 hPa | 0 mm | - | 0 W/m² | - |
| 1777870424 | 11.67° C | 38% | 1022.9 hPa | 0 mm | - | 0 W/m² | - |
| 1777870121 | 12.22° C | 37% | 1022.8 hPa | 0 mm | - | 0 W/m² | - |
| 1777869818 | 12.22° C | 37% | 1022.9 hPa | 0 mm | - | 0 W/m² | - |
| 1777869516 | 12.78° C | 36% | 1022.9 hPa | 0 mm | - | 0 W/m² | - |
| 1777869212 | 12.78° C | 36% | 1022.6 hPa | 0 mm | - | 0 W/m² | - |
| 1777868910 | 12.78° C | 35% | 1023.1 hPa | 0 mm | - | 0 W/m² | - |
* Rain latest hour (hover to see other rain measurements)
** Current wind speed in m/s (hover to see current wind gust speed)